Change the Weather History Date:

Wednesday, September 25, 2013

  Actual Average Record
Temperature  
Mean Temperature 75 °F 74 °F  
Max Temperature 80 °F 84 °F 95 °F (1986)
Min Temperature 70 °F 65 °F 50 °F (1990)
Degree Days  
Heating Degree Days 0 0  
Month to date heating degree days 0 0  
Since 1 July heating degree days 0 0  
Cooling Degree Days 10 10  
Month to date cooling degree days 358 315  
Year to date cooling degree days 2207 2222  
Growing Degree Days 25 (Base 50)    
Moisture  
Dew Point 68 °F    
Average Humidity 82    
Maximum Humidity 93    
Minimum Humidity 71    
Precipitation  
Precipitation 0.61 in 0.12 in 4.57 in (1890)
Month to date precipitation 1.75 3.86  
Year to date precipitation 48.92 38.23  
Sea Level Pressure  
Sea Level Pressure 29.83 in    
Wind  
Wind Speed 8 mph (NE)    
Max Wind Speed 15 mph    
Max Gust Speed 18 mph    
Visibility 9 miles    
Events Rain    
T = Trace of Precipitation, MM = Missing Value Source: NWS Daily Summary

Daily Weather History Graph

Daily Weather History Graph

Search for Another Location

Airport or City:

Trip Planner

Search our weather history database for the weather conditions in past years. The results will help you decide how hot, cold, wet, or windy it might be!

Date:

Astronomy

Sep. 25, 2013 Rise Set
Actual Time 7:15 AM EDT 7:17 PM EDT
Civil Twilight 6:50 AM EDT 7:41 PM EDT
Nautical Twilight 6:22 AM EDT 8:09 PM EDT
Astronomical Twilight 5:53 AM EDT 8:38 PM EDT
Moon 11:40 PM EDT (9/25) 1:01 PM EDT (9/25)
Length of Visible Light 12h 50m
Length of Day
12h 02m
Waning Gibbous, 64% of the Moon is Illuminated
Sep 25
Waning Gibbous
Sep 26
Last Quarter
Oct 4
New
Oct 11
First Quarter
Oct 18
Full

Hourly Weather History & Observations

Time (EDT) Temp. Dew Point Humidity Pressure Visibility Wind Dir Wind Speed Gust Speed Precip Events Conditions
12:14 AM 69.8 °F 64.4 °F 83% 29.88 in 10.0 mi NNE 6.9 mph - N/A   Mostly Cloudy
12:53 AM 70.0 °F 64.9 °F 84% 29.87 in 10.0 mi NNE 6.9 mph - N/A   Overcast
1:33 AM 69.8 °F 64.4 °F 83% 29.87 in 10.0 mi NNE 6.9 mph - N/A   Mostly Cloudy
1:53 AM 71.1 °F 66.0 °F 84% 29.87 in 10.0 mi NE 6.9 mph - N/A   Mostly Cloudy
2:17 AM 71.6 °F 66.2 °F 83% 29.87 in 10.0 mi NE 8.1 mph - N/A   Overcast
2:39 AM 71.6 °F 66.2 °F 83% 29.85 in 10.0 mi NE 6.9 mph - N/A   Overcast
2:53 AM 71.1 °F 66.0 °F 84% 29.85 in 10.0 mi NE 9.2 mph - N/A   Overcast
3:24 AM 71.6 °F 66.2 °F 83% 29.84 in 10.0 mi NNE 8.1 mph - N/A   Overcast
3:43 AM 71.6 °F 66.2 °F 83% 29.83 in 10.0 mi NNE 9.2 mph - N/A   Overcast
3:53 AM 70.0 °F 66.0 °F 87% 29.83 in 10.0 mi NNE 8.1 mph - N/A   Overcast
4:53 AM 71.1 °F 66.0 °F 84% 29.82 in 10.0 mi NE 9.2 mph - N/A   Overcast
5:53 AM 71.1 °F 66.0 °F 84% 29.83 in 10.0 mi NE 9.2 mph - N/A   Overcast
6:23 AM 71.6 °F 66.2 °F 83% 29.83 in 10.0 mi NNE 9.2 mph - N/A   Overcast
6:53 AM 71.1 °F 66.0 °F 84% 29.83 in 10.0 mi NE 9.2 mph - N/A   Overcast
7:51 AM 71.6 °F 66.2 °F 83% 29.82 in 10.0 mi NE 9.2 mph - N/A   Overcast
7:53 AM 71.1 °F 66.0 °F 84% 29.82 in 10.0 mi NE 9.2 mph - N/A   Overcast
8:53 AM 71.1 °F 66.9 °F 87% 29.83 in 9.0 mi NE 6.9 mph - 0.00 in   Overcast
9:17 AM 71.6 °F 66.2 °F 83% 29.84 in 10.0 mi NE 9.2 mph - N/A   Overcast
9:53 AM 72.0 °F 66.9 °F 84% 29.83 in 9.0 mi NE 6.9 mph - 0.00 in Rain Light Rain
10:53 AM 73.9 °F 66.9 °F 79% 29.84 in 10.0 mi NNE 8.1 mph - 0.00 in   Overcast
11:53 AM 77.0 °F 68.0 °F 74% 29.84 in 10.0 mi ENE 5.8 mph - N/A   Overcast
12:53 PM 78.1 °F 69.1 °F 74% 29.82 in 10.0 mi ENE 9.2 mph - N/A   Overcast
1:53 PM 79.0 °F 69.1 °F 72% 29.81 in 10.0 mi ENE 6.9 mph 16.1 mph N/A   Overcast
2:53 PM 79.0 °F 69.1 °F 72% 29.80 in 10.0 mi NE 10.4 mph - N/A   Overcast
3:53 PM 79.0 °F 69.1 °F 72% 29.78 in 10.0 mi East 9.2 mph - N/A   Overcast
4:53 PM 79.0 °F 68.0 °F 69% 29.79 in 10.0 mi East 11.5 mph - N/A   Overcast
5:49 PM 77.0 °F 68.0 °F 74% 29.80 in 10.0 mi East 6.9 mph - N/A   Overcast
5:53 PM 77.0 °F 68.0 °F 74% 29.80 in 10.0 mi ESE 8.1 mph - N/A   Overcast
6:13 PM 78.8 °F 68.0 °F 69% 29.79 in 10.0 mi East 9.2 mph - N/A   Mostly Cloudy
6:53 PM 77.0 °F 68.0 °F 74% 29.81 in 10.0 mi ENE 5.8 mph - N/A   Overcast
7:14 PM 75.2 °F 69.8 °F 83% 29.81 in 4.0 mi NW 8.1 mph - 0.00 in Rain Light Rain
7:16 PM 73.4 °F 69.8 °F 88% 29.81 in 2.0 mi NW 8.1 mph - 0.00 in Rain Light Rain
7:20 PM 73.4 °F 69.8 °F 88% 29.82 in 2.0 mi NW 15.0 mph 18.4 mph 0.00 in Rain Heavy Rain
7:28 PM 73.4 °F 69.8 °F 88% 29.82 in 1.0 mi NNE 4.6 mph 18.4 mph 0.13 in Rain Heavy Rain
7:31 PM 73.4 °F 69.8 °F 88% 29.82 in 1.0 mi NE 5.8 mph - 0.19 in Rain Heavy Rain
7:44 PM 73.4 °F 69.8 °F 88% 29.82 in 2.0 mi East 4.6 mph - 0.55 in Rain Heavy Rain
7:53 PM 73.0 °F 70.0 °F 90% 29.82 in 6.0 mi ENE 3.5 mph - 0.58 in Rain Light Rain
8:12 PM 73.4 °F 69.8 °F 88% 29.82 in 10.0 mi NE 5.8 mph - 0.00 in   Overcast
8:53 PM 72.0 °F 69.1 °F 91% 29.82 in 6.0 mi ENE 6.9 mph - 0.02 in Rain Light Rain
9:53 PM 72.0 °F 69.1 °F 91% 29.82 in 10.0 mi Calm Calm - 0.01 in   Overcast
10:53 PM 72.0 °F 69.1 °F 91% 29.83 in 9.0 mi North 3.5 mph - N/A   Overcast
11:15 PM 71.6 °F 69.8 °F 94% 29.83 in 9.0 mi North 3.5 mph - 0.00 in Rain Light Rain
11:46 PM 71.6 °F 69.8 °F 94% 29.83 in 9.0 mi North 6.9 mph - 0.00 in   Overcast
11:53 PM 72.0 °F 69.1 °F 91% 29.83 in 9.0 mi North 5.8 mph - 0.00 in   Overcast